Location: Rounton
(54.4000°N, 1.3500°W)
Time: 08:27:34
(UTC+01:00)

A-11 Canister half - Pass Details

Date: 26 June 2022
Orbit: 1525 x 1683 km, 47.3° (Epoch: 16 August)

Event Time Altitude Azimuth Distance (km) Brightness Sun altitude
Rises 00:34:23 0° 279° (W) 4,694 11.8 -11.9°
Reaches altitude 10° 00:37:40 10° 273° (W) 3,701 11.1 -12.0°
Maximum altitude 00:45:59 39° 209° (SSW) 2,150 9.4 -12.1°
Drops below altitude 10° 00:54:21 10° 145° (SE) 3,709 10.5 -12.2°
Enters shadow 00:55:38 - 142° (SE) 4,090 10.7 -12.2°
